GW2280 Weather Reports


Display with metric or nautical units.
time (UTC)temp
F
wind
direction
speed
MPH
gust
MPH
rain 1hr
in
rain 24hr
in
rain mn
in
humidity
%
barometer
mb
20260506005015 65 271 9.0 14.0 0.00 0.00 0.00 70 1010.1
20260506004552 65 272 5.0 10.0 0.00 0.00 0.00 71 1010.0
20260506004012 65 246 5.0 10.0 0.00 0.00 0.00 70 1010.0
20260506003512 65 244 4.0 10.0 0.00 0.00 0.00 70 1010.1
20260506003031 66 250 4.0 10.0 0.00 0.00 0.00 70 1009.9
20260506002512 66 250 5.0 10.0 0.00 0.00 0.00 68 1009.8
20260506002012 66 201 4.0 10.0 0.00 0.00 0.00 68 1009.8
20260506001530 66 254 5.0 18.0 0.00 0.00 0.00 68 1009.7
20260506001012 66 243 4.0 18.0 0.00 0.00 0.00 68 1009.6
20260506000513 65 250 8.0 15.0 0.00 0.00 0.00 69 1009.5
20260506000028 65 277 8.0 15.0 0.00 0.00 0.00 69 1009.5
20260505235513 65 261 4.0 10.0 0.00 0.00 0.00 69 1009.4
20260505235017 66 224 4.0 8.0 0.00 0.00 0.00 69 1009.3
20260505234601 66 217 2.0 8.0 0.00 0.00 0.00 68 1009.0
20260505234011 66 0 2.0 8.0 0.00 0.00 0.00 68 1008.9
20260505233512 66 0 3.0 10.0 0.00 0.00 0.00 68 1008.7
20260505233032 66 294 3.0 15.0 0.00 0.00 0.00 68 1008.5
20260505232512 66 311 4.0 15.0 0.00 0.00 0.00 67 1008.3
20260505232011 66 283 6.0 11.0 0.00 0.00 0.00 68 1008.3
20260505231535 67 241 2.0 15.0 0.00 0.00 0.00 67 1008.1
20260505231012 67 292 5.0 15.0 0.00 0.00 0.00 66 1008.1
20260505230518 67 321 5.0 17.0 0.00 0.00 0.00 66 1008.1
20260505230030 67 274 6.0 18.0 0.00 0.00 0.00 66 1008.1
20260505225513 67 336 10.0 26.0 0.00 0.00 0.00 65 1008.2
20260505225014 68 309 10.0 31.0 0.00 0.00 0.00 64 1008.3
20260505224534 68 258 17.0 35.0 0.00 0.00 0.00 62 1008.3
20260505224016 70 360 18.0 35.0 0.00 0.00 0.00 60 1008.3
20260505223512 72 311 15.0 34.0 0.00 0.00 0.00 54 1008.0
20260505223029 76 277 17.0 34.0 0.00 0.00 0.00 47 1007.8
20260505222513 77 273 14.0 36.0 0.00 0.00 0.00 40 1007.1
20260505222011 77 211 14.0 37.0 0.00 0.00 0.00 39 1006.5
20260505221529 77 239 15.0 37.0 0.00 0.00 0.00 38 1006.3
20260505221011 78 218 13.0 32.0 0.00 0.00 0.00 38 1006.4
20260505220512 77 237 11.0 32.0 0.00 0.00 0.00 38 1006.3
20260505220030 77 202 11.0 32.0 0.00 0.00 0.00 38 1006.1
20260505215512 76 224 16.0 32.0 0.00 0.00 0.00 39 1006.3
20260505215014 75 238 11.0 24.0 0.00 0.00 0.00 41 1005.9
20260505214538 75 246 7.0 18.0 0.00 0.00 0.00 46 1006.1
20260505214011 75 227 8.0 18.0 0.00 0.00 0.00 48 1006.1
20260505213516 76 157 7.0 16.0 0.00 0.00 0.00 47 1006.0
20260505213029 77 195 7.0 19.0 0.00 0.00 0.00 46 1005.9
20260505212514 77 167 8.0 19.0 0.00 0.00 0.00 46 1005.8
20260505212012 77 236 4.0 16.0 0.00 0.00 0.00 46 1005.9
20260505211530 77 196 8.0 24.0 0.00 0.00 0.00 45 1005.9
20260505211015 78 212 8.0 24.0 0.00 0.00 0.00 45 1005.7
20260505210517 78 182 9.0 24.0 0.00 0.00 0.00 45 1005.7
20260505210031 78 156 6.0 24.0 0.00 0.00 0.00 45 1005.7
20260505205512 78 169 11.0 24.0 0.00 0.00 0.00 46 1005.7
20260505205012 78 176 8.0 21.0 0.00 0.00 0.00 45 1005.5
20260505204530 78 188 9.0 19.0 0.00 0.00 0.00 45 1005.7
20260505204012 79 172 9.0 26.0 0.00 0.00 0.00 44 1005.7
20260505203513 80 182 7.0 26.0 0.00 0.00 0.00 43 1005.6
20260505203029 81 245 11.0 26.0 0.00 0.00 0.00 38 1005.7
20260505202514 81 188 8.0 30.0 0.00 0.00 0.00 39 1005.7
20260505202011 81 237 16.0 35.0 0.00 0.00 0.00 36 1005.7
20260505201532 81 223 15.0 35.0 0.00 0.00 0.00 36 1005.7
20260505201013 81 212 15.0 28.0 0.00 0.00 0.00 36 1005.8
20260505200513 81 220 13.0 28.0 0.00 0.00 0.00 37 1005.8
20260505200035 81 214 15.0 28.0 0.00 0.00 0.00 38 1005.8
20260505195513 81 202 15.0 29.0 0.00 0.00 0.00 37 1006.0
20260505195012 81 271 14.0 29.0 0.00 0.00 0.00 38 1006.0
20260505194530 81 262 12.0 27.0 0.00 0.00 0.00 39 1006.1
20260505194011 80 229 11.0 33.0 0.00 0.00 0.00 39 1006.0
20260505193513 80 229 16.0 33.0 0.00 0.00 0.00 40 1006.1
20260505193030 80 262 14.0 31.0 0.00 0.00 0.00 39 1006.2
20260505192515 80 257 16.0 31.0 0.00 0.00 0.00 38 1006.2
20260505192012 79 209 17.0 31.0 0.00 0.00 0.00 39 1006.5
20260505191531 79 160 14.0 31.0 0.00 0.00 0.00 40 1006.4
20260505191017 79 221 14.0 31.0 0.00 0.00 0.00 40 1006.6
20260505190513 80 192 16.0 30.0 0.00 0.00 0.00 40 1006.4
20260505190031 79 227 11.0 25.0 0.00 0.00 0.00 41 1006.7
20260505185514 79 206 10.0 22.0 0.00 0.00 0.00 41 1006.9
20260505185016 79 238 9.0 27.0 0.00 0.00 0.00 41 1007.0
20260505184532 79 196 9.0 28.0 0.00 0.00 0.00 42 1007.1
20260505184014 80 125 9.0 28.0 0.00 0.00 0.00 41 1007.1
20260505183513 80 243 12.0 23.0 0.00 0.00 0.00 40 1007.1
20260505183043 81 164 10.0 31.0 0.00 0.00 0.00 39 1007.1
20260505182512 80 247 14.0 31.0 0.00 0.00 0.00 40 1007.1
20260505182014 80 234 16.0 30.0 0.00 0.00 0.00 39 1007.1
20260505181529 80 207 13.0 30.0 0.00 0.00 0.00 39 1007.1
20260505181015 81 179 14.0 30.0 0.00 0.00 0.00 38 1007.1
20260505180512 81 219 12.0 28.0 0.00 0.00 0.00 39 1007.2
20260505180032 82 199 12.0 33.0 0.00 0.00 0.00 38 1007.2
20260505175515 82 198 9.0 33.0 0.00 0.00 0.00 39 1007.3
20260505175014 81 300 14.0 29.0 0.00 0.00 0.00 38 1007.3
20260505174532 81 221 16.0 32.0 0.00 0.00 0.00 38 1007.5
20260505174011 80 219 13.0 32.0 0.00 0.00 0.00 41 1007.5
20260505173511 80 242 13.0 26.0 0.00 0.00 0.00 40 1007.6
20260505173038 80 204 14.0 25.0 0.00 0.00 0.00 41 1007.6
20260505172513 80 194 9.0 24.0 0.00 0.00 0.00 42 1007.5
20260505172013 80 180 12.0 24.0 0.00 0.00 0.00 41 1007.7
20260505171533 80 214 11.0 26.0 0.00 0.00 0.00 41 1007.9
20260505171012 79 265 13.0 26.0 0.00 0.00 0.00 42 1007.7
20260505170513 78 229 15.0 31.0 0.00 0.00 0.00 44 1007.9
20260505170035 78 227 14.0 31.0 0.00 0.00 0.00 42 1008.1
20260505165513 79 231 13.0 23.0 0.00 0.00 0.00 41 1008.2
20260505165013 79 251 8.0 28.0 0.00 0.00 0.00 43 1008.5
20260505164529 78 205 10.0 31.0 0.00 0.00 0.00 44 1008.4
20260505164013 78 223 17.0 31.0 0.00 0.00 0.00 43 1008.6
20260505163514 78 249 13.0 28.0 0.00 0.00 0.00 43 1008.9
20260505163027 77 222 17.0 28.0 0.00 0.00 0.00 43 1009.0
20260505162512 77 244 11.0 37.0 0.00 0.00 0.00 44 1009.1
20260505162012 77 211 14.0 37.0 0.00 0.00 0.00 44 1009.1
20260505161532 76 233 9.0 23.0 0.00 0.00 0.00 45 1009.2
20260505161013 76 236 13.0 25.0 0.00 0.00 0.00 46 1009.3
20260505160513 76 209 9.0 27.0 0.00 0.00 0.00 48 1009.4
20260505153030 73 212 7.0 23.0 0.00 0.00 0.00 48 1009.8
20260505152511 73 228 11.0 23.0 0.00 0.00 0.00 49 1010.0
20260505152012 73 225 7.0 20.0 0.00 0.00 0.00 50 1009.9
20260505151528 72 231 11.0 20.0 0.00 0.00 0.00 50 1010.1
20260505151011 72 191 11.0 18.0 0.00 0.00 0.00 50 1010.1
20260505150512 72 225 8.0 17.0 0.00 0.00 0.00 50 1010.0
20260505140517 65 216 8.0 17.0 0.00 0.00 0.00 58 1010.1
20260505125014 60 259 5.0 12.0 0.00 0.00 0.00 66 1010.3
20260505124543 59 360 7.0 15.0 0.00 0.00 0.00 66 1010.4
20260505124014 58 248 5.0 15.0 0.00 0.00 0.00 67 1010.3
20260505123520 58 282 5.0 16.0 0.00 0.00 0.00 67 1010.3
20260505123033 58 360 9.0 20.0 0.00 0.00 0.00 66 1010.2
20260505122513 58 360 9.0 20.0 0.00 0.00 0.00 66 1010.2
20260505122018 58 360 11.0 20.0 0.00 0.00 0.00 66 1010.0
20260505121532 58 317 8.0 16.0 0.00 0.00 0.00 67 1010.0
20260505121013 57 199 8.0 16.0 0.00 0.00 0.00 67 1009.8
20260505120513 56 209 6.0 14.0 0.00 0.00 0.00 68 1009.8
20260505120038 56 257 5.0 15.0 0.00 0.00 0.00 69 1009.9
20260505115513 55 215 7.0 15.0 0.00 0.00 0.00 69 1009.8
20260505115013 55 216 7.0 16.0 0.00 0.00 0.00 70 1009.9
20260505114531 54 213 8.0 16.0 0.00 0.00 0.00 71 1010.0
20260505114013 54 240 8.0 16.0 0.00 0.00 0.00 71 1009.9
20260505113514 53 0 6.0 15.0 0.00 0.00 0.00 72 1010.0
20260505113033 53 281 6.0 15.0 0.00 0.00 0.00 73 1010.1
20260505112510 53 215 9.0 15.0 0.00 0.00 0.00 73 1010.0
20260505112012 52 214 8.0 17.0 0.00 0.00 0.00 74 1010.1
20260505111532 52 246 8.0 16.0 0.00 0.00 0.00 74 1010.1
20260505111018 52 232 8.0 16.0 0.00 0.00 0.00 74 1010.1
20260505110512 51 213 8.0 17.0 0.00 0.00 0.00 75 1010.1
20260505102013 50 226 10.0 18.0 0.00 0.00 0.00 76 1010.0
20260505101538 50 229 10.0 18.0 0.00 0.00 0.00 76 1010.0
20260505101012 50 236 10.0 20.0 0.00 0.00 0.00 76 1009.9
20260505100516 50 206 10.0 20.0 0.00 0.00 0.00 76 1010.0
20260505100028 50 287 9.0 19.0 0.00 0.00 0.00 76 1009.9
20260505095512 50 250 11.0 19.0 0.00 0.00 0.00 75 1010.0
20260505095012 50 225 11.0 19.0 0.00 0.00 0.00 75 1009.9
20260505094532 50 233 12.0 19.0 0.00 0.00 0.00 75 1009.8
20260505094013 50 225 11.0 20.0 0.00 0.00 0.00 75 1009.9
20260505093515 51 232 10.0 20.0 0.00 0.00 0.00 74 1009.9
20260505093032 51 217 11.0 20.0 0.00 0.00 0.00 74 1009.9
20260505092515 51 202 10.0 22.0 0.00 0.00 0.00 74 1010.0
20260505092014 51 215 12.0 22.0 0.00 0.00 0.00 74 1009.9
20260505091530 50 243 12.0 21.0 0.00 0.00 0.00 74 1009.9
20260505091014 50 232 10.0 19.0 0.00 0.00 0.00 74 1009.8
20260505090512 51 233 9.0 16.0 0.00 0.00 0.00 73 1009.9
20260505090029 51 223 10.0 16.0 0.00 0.00 0.00 73 1009.9
20260505085512 51 200 8.0 23.0 0.00 0.00 0.00 73 1009.9
20260505085016 51 261 9.0 23.0 0.00 0.00 0.00 72 1010.0
20260505084540 51 221 10.0 23.0 0.00 0.00 0.00 72 1010.0
20260505084012 51 237 9.0 17.0 0.00 0.00 0.00 72 1009.9
20260505083511 51 216 10.0 17.0 0.00 0.00 0.00 72 1010.1
20260505083029 51 215 8.0 16.0 0.00 0.00 0.00 72 1010.2
20260505082512 51 268 8.0 16.0 0.00 0.00 0.00 71 1010.3
20260505082010 52 254 9.0 16.0 0.00 0.00 0.00 71 1010.2
20260505081532 52 227 10.0 16.0 0.00 0.00 0.00 71 1010.4
20260505081011 52 222 9.0 17.0 0.00 0.00 0.00 70 1010.4
20260505080514 52 234 10.0 18.0 0.00 0.00 0.00 70 1010.3
20260505080030 52 259 9.0 18.0 0.00 0.00 0.00 70 1010.4
20260505075511 52 282 9.0 18.0 0.00 0.00 0.00 69 1010.4
20260505075015 53 233 10.0 18.0 0.00 0.00 0.00 69 1010.4
20260505074535 53 236 10.0 18.0 0.00 0.00 0.00 69 1010.4
20260505074012 53 217 11.0 17.0 0.00 0.00 0.00 69 1010.4
20260505073511 53 236 9.0 17.0 0.00 0.00 0.00 68 1010.5
20260505073039 53 263 9.0 17.0 0.00 0.00 0.00 68 1010.5
20260505072511 53 276 10.0 18.0 0.00 0.00 0.00 68 1010.4
20260505072010 53 258 9.0 18.0 0.00 0.00 0.00 68 1010.4
20260505071529 53 243 11.0 18.0 0.00 0.00 0.00 68 1010.3
20260505071015 53 246 10.0 20.0 0.00 0.00 0.00 68 1010.3
20260505070512 53 234 10.0 21.0 0.00 0.00 0.00 68 1010.3
20260505070039 53 299 12.0 23.0 0.00 0.00 0.00 68 1010.3
20260505065510 53 263 12.0 23.0 0.00 0.00 0.00 68 1010.4
20260505065011 53 344 11.0 22.0 0.00 0.00 0.00 68 1010.4
20260505064530 53 229 11.0 22.0 0.00 0.00 0.00 67 1010.4
20260505064012 53 210 12.0 22.0 0.00 0.00 0.00 67 1010.3
20260505063513 53 236 12.0 25.0 0.00 0.00 0.00 67 1010.4
20260505063031 53 262 12.0 25.0 0.00 0.00 0.00 67 1010.2
20260505062512 53 228 13.0 23.0 0.00 0.00 0.00 67 1010.3
20260505062011 53 271 13.0 23.0 0.00 0.00 0.00 67 1010.3
20260505061538 53 253 11.0 23.0 0.00 0.00 0.00 67 1010.3
20260505061011 53 219 12.0 25.0 0.00 0.00 0.00 67 1010.3
20260505060517 53 360 13.0 25.0 0.00 0.00 0.00 67 1010.3
20260505060030 53 223 9.0 19.0 0.00 0.00 0.00 67 1010.3
20260505055511 53 241 11.0 21.0 0.00 0.00 0.00 67 1010.3
20260505055013 54 223 10.0 21.0 0.00 0.00 0.00 66 1010.4
20260505054536 54 279 10.0 24.0 0.00 0.00 0.00 66 1010.5
20260505054014 54 268 9.0 24.0 0.00 0.00 0.00 66 1010.5
20260505053516 54 240 13.0 20.0 0.00 0.00 0.00 66 1010.4
20260505053033 54 286 10.0 20.0 0.00 0.00 0.00 65 1010.4
20260505052513 54 233 10.0 22.0 0.00 0.00 0.00 65 1010.3
20260505052011 54 250 10.0 22.0 0.00 0.00 0.00 65 1010.4
20260505051532 54 256 14.0 22.0 0.00 0.00 0.00 65 1010.4
20260505051011 55 243 14.0 25.0 0.00 0.00 0.00 64 1010.6
20260505050514 55 221 11.0 25.0 0.00 0.00 0.00 64 1010.5
20260505041548 56 198 11.0 23.0 0.00 0.00 0.00 62 1010.3
20260505041013 56 229 11.0 23.0 0.00 0.00 0.00 62 1010.3
20260505040511 56 211 12.0 24.0 0.00 0.00 0.00 61 1010.3
20260505040038 56 199 12.0 24.0 0.00 0.00 0.00 62 1010.3
20260505035516 56 202 11.0 24.0 0.00 0.00 0.00 61 1010.1
20260505035016 56 224 9.0 23.0 0.00 0.00 0.00 61 1010.1
20260505034532 57 215 9.0 20.0 0.00 0.00 0.00 60 1010.1
20260505034013 57 235 10.0 20.0 0.00 0.00 0.00 60 1010.1
20260505033511 57 215 11.0 20.0 0.00 0.00 0.00 59 1010.0
20260505033030 57 231 9.0 23.0 0.00 0.00 0.00 59 1010.1
20260505032510 57 196 12.0 23.0 0.00 0.00 0.00 59 1010.1
20260505032017 57 195 8.0 23.0 0.00 0.00 0.00 59 1010.1
20260505031539 57 217 9.0 23.0 0.00 0.00 0.00 59 1010.1
20260505031013 57 285 10.0 25.0 0.00 0.00 0.00 58 1010.0
20260505030511 57 230 11.0 25.0 0.00 0.00 0.00 58 1010.0
20260505030032 58 188 10.0 22.0 0.00 0.00 0.00 58 1010.0
20260505025512 58 192 12.0 26.0 0.00 0.00 0.00 57 1010.0
20260505025016 58 215 12.0 26.0 0.00 0.00 0.00 56 1010.0
20260505024533 58 205 11.0 25.0 0.00 0.00 0.00 55 1010.0
20260505024011 58 239 12.0 25.0 0.00 0.00 0.00 55 1010.1
20260505023512 58 188 9.0 25.0 0.00 0.00 0.00 54 1010.0
20260505023031 58 360 12.0 21.0 0.00 0.00 0.00 54 1010.0
20260505022514 58 360 8.0 16.0 0.00 0.00 0.00 54 1010.0
20260505022014 58 360 7.0 14.0 0.00 0.00 0.00 54 1009.8
20260505021533 58 360 8.0 14.0 0.00 0.00 0.00 54 1009.9
20260505021015 58 360 8.0 14.0 0.00 0.00 0.00 54 1009.9
20260505020511 58 360 7.0 14.0 0.00 0.00 0.00 54 1009.8
20260505020030 58 360 7.0 14.0 0.00 0.00 0.00 53 1009.8
20260505015513 58 360 7.0 14.0 0.00 0.00 0.00 53 1009.7
20260505015013 58 360 8.0 14.0 0.00 0.00 0.00 54 1009.6
20260505014534 58 360 8.0 15.0 0.00 0.00 0.00 54 1009.5
20260505014012 58 360 8.0 15.0 0.00 0.00 0.00 54 1009.4
20260505013516 58 360 7.0 14.0 0.00 0.00 0.00 53 1009.5
20260505013029 58 360 8.0 13.0 0.00 0.00 0.00 53 1009.4
20260505012512 58 360 7.0 12.0 0.00 0.00 0.00 53 1009.4
20260505012013 59 360 7.0 13.0 0.00 0.00 0.00 53 1009.4
20260505011532 59 360 7.0 13.0 0.00 0.00 0.00 53 1009.3
20260505011012 58 227 7.0 12.0 0.00 0.00 0.00 52 1009.3
20260505010513 59 249 7.0 12.0 0.00 0.00 0.00 53 1009.2
20260505010029 59 360 5.0 12.0 0.00 0.00 0.00 52 1009.2
20260505005511 59 225 7.0 12.0 0.00 0.00 0.00 52 1009.0